Location: *
(51.2167°N, 10.0667°E)
Time: 23:33:54
(UTC+00:00)

Genesis I - Pass Details

Date: 12 December 2019
Orbit: 494 x 529 km, 64.5° (Epoch: 26 January)

Event Time Altitude Azimuth Distance (km) Brightness Sun altitude
Rises 16:15:02 0° 318° (NW) 2,652 7.0 -9.2°
Reaches altitude 10° 16:17:15 10° 321° (NW) 1,754 6.1 -9.5°
Maximum altitude 16:21:10 73° 45° (NE) 542 3.1 -10.1°
Drops below altitude 10° 16:25:01 10° 132° (SE) 1,722 5.6 -10.7°
Sets 16:27:10 0° 134° (SE) 2,597 6.5 -11.0°
